![]() |
EMODnet Physics ERDDAP
Easier access to scientific data |
log in|
Brought to you by EMODnet Physics |
| Dataset Title: | NDBC - Collection of dew point temperature (DEWT) TimeSeries - IN SITU MultiPointTimeSeriesObservation
|
| Institution: | NDBC (Dataset ID: TS_DEWT_NDBC) |
| Information: | Summary
| License
| FGDC
| ISO 19115
| Metadata
| Background
| Subset
| Data Access Form
| Make a graph
|
| Name | Last modified | Size | Description | |
|---|---|---|---|---|
| Parent Directory | - | - | ||
| ICYA2_TS_DEWT_012013.nc | 26-Dec-2024 08:45 | 429498 | ||
| ICYA2_TS_DEWT_012014.nc | 26-Dec-2024 08:48 | 429811 | ||
| ICYA2_TS_DEWT_012015.nc | 26-Dec-2024 08:50 | 428574 | ||
| ICYA2_TS_DEWT_012016.nc | 26-Dec-2024 08:51 | 429788 | ||
| ICYA2_TS_DEWT_012018.nc | 26-Dec-2024 08:54 | 429597 | ||
| ICYA2_TS_DEWT_022013.nc | 26-Dec-2024 08:45 | 448958 | ||
| ICYA2_TS_DEWT_022014.nc | 26-Dec-2024 08:48 | 4432053 | ||
| ICYA2_TS_DEWT_022015.nc | 26-Dec-2024 08:50 | 451325 | ||
| ICYA2_TS_DEWT_022018.nc | 26-Dec-2024 08:54 | 1262232 | ||
| ICYA2_TS_DEWT_032013.nc | 26-Dec-2024 08:46 | 1266561 | ||
| ICYA2_TS_DEWT_032014.nc | 26-Dec-2024 08:48 | 1242665 | ||
| ICYA2_TS_DEWT_032015.nc | 26-Dec-2024 08:50 | 1252703 | ||
| ICYA2_TS_DEWT_032018.nc | 26-Dec-2024 08:54 | 1239373 | ||
| ICYA2_TS_DEWT_042013.nc | 26-Dec-2024 08:46 | 1269002 | ||
| ICYA2_TS_DEWT_042014.nc | 26-Dec-2024 08:48 | 1087426 | ||
| ICYA2_TS_DEWT_042015.nc | 26-Dec-2024 08:50 | 448737 | ||
| ICYA2_TS_DEWT_042018.nc | 26-Dec-2024 08:55 | 1109546 | ||
| ICYA2_TS_DEWT_052013.nc | 26-Dec-2024 08:46 | 1030134 | ||
| ICYA2_TS_DEWT_052014.nc | 26-Dec-2024 08:48 | 1022128 | ||
| ICYA2_TS_DEWT_052015.nc | 26-Dec-2024 08:50 | 1023484 | ||
| ICYA2_TS_DEWT_052016.nc | 26-Dec-2024 08:51 | 1087991 | ||
| ICYA2_TS_DEWT_052018.nc | 26-Dec-2024 08:55 | 1026737 | ||
| ICYA2_TS_DEWT_052023.nc | 26-Dec-2024 09:05 | 5002311 | ||
| ICYA2_TS_DEWT_062013.nc | 26-Dec-2024 08:46 | 451365 | ||
| ICYA2_TS_DEWT_062014.nc | 26-Dec-2024 08:48 | 1264761 | ||
| ICYA2_TS_DEWT_062015.nc | 26-Dec-2024 08:50 | 1007648 | ||
| ICYA2_TS_DEWT_062016.nc | 26-Dec-2024 08:52 | 1246494 | ||
| ICYA2_TS_DEWT_062018.nc | 26-Dec-2024 08:55 | 1261834 | ||
| ICYA2_TS_DEWT_062023.nc | 26-Dec-2024 09:06 | 1250906 | ||
| ICYA2_TS_DEWT_072013.nc | 26-Dec-2024 08:46 | 1258741 | ||
| ICYA2_TS_DEWT_072014.nc | 26-Dec-2024 08:49 | 4093048 | ||
| ICYA2_TS_DEWT_072015.nc | 26-Dec-2024 08:51 | 438462 | ||
| ICYA2_TS_DEWT_072016.nc | 26-Dec-2024 08:52 | 449052 | ||
| ICYA2_TS_DEWT_072018.nc | 26-Dec-2024 08:55 | 1112986 | ||
| ICYA2_TS_DEWT_072023.nc | 26-Dec-2024 09:06 | 1113309 | ||
| ICYA2_TS_DEWT_072025.nc | 16-Aug-2025 06:53 | 1118023 | ||
| ICYA2_TS_DEWT_082013.nc | 26-Dec-2024 08:46 | 1103589 | ||
| ICYA2_TS_DEWT_082014.nc | 26-Dec-2024 08:49 | 1099477 | ||
| ICYA2_TS_DEWT_082016.nc | 26-Dec-2024 08:52 | 1115503 | ||
| ICYA2_TS_DEWT_082018.nc | 26-Dec-2024 08:56 | 449693 | ||
| ICYA2_TS_DEWT_082023.nc | 26-Dec-2024 09:06 | 450317 | ||
| ICYA2_TS_DEWT_082025.nc | 01-Sep-2025 07:20 | 1261743 | ||
| ICYA2_TS_DEWT_092013.nc | 26-Dec-2024 08:47 | 1262318 | ||
| ICYA2_TS_DEWT_092014.nc | 26-Dec-2024 08:49 | 1252455 | ||
| ICYA2_TS_DEWT_092016.nc | 26-Dec-2024 08:52 | 1218159 | ||
| ICYA2_TS_DEWT_092018.nc | 26-Dec-2024 08:56 | 1244440 | ||
| ICYA2_TS_DEWT_092022.nc | 26-Dec-2024 09:05 | 1263822 | ||
| ICYA2_TS_DEWT_092023.nc | 26-Dec-2024 09:07 | 448538 | ||
| ICYA2_TS_DEWT_092024.nc | 10-Jan-2025 22:26 | 446574 | ||
| ICYA2_TS_DEWT_092025.nc | 01-Oct-2025 07:17 | 1107767 | ||
| ICYA2_TS_DEWT_102013.nc | 26-Dec-2024 08:47 | 1112386 | ||
| ICYA2_TS_DEWT_102014.nc | 26-Dec-2024 08:49 | 1090105 | ||
| ICYA2_TS_DEWT_102016.nc | 26-Dec-2024 08:52 | 1071327 | ||
| ICYA2_TS_DEWT_102018.nc | 26-Dec-2024 08:56 | 1085631 | ||
| ICYA2_TS_DEWT_102022.nc | 26-Dec-2024 09:05 | 1112343 | ||
| ICYA2_TS_DEWT_102023.nc | 26-Dec-2024 09:07 | 450030 | ||
| ICYA2_TS_DEWT_102024.nc | 20-Jan-2025 07:35 | 450616 | ||
| ICYA2_TS_DEWT_102025.nc | 15-Nov-2025 11:14 | 1104527 | ||
| ICYA2_TS_DEWT_112012.nc | 26-Dec-2024 08:45 | 648106 | ||
| ICYA2_TS_DEWT_112013.nc | 26-Dec-2024 08:47 | 1217511 | ||
| ICYA2_TS_DEWT_112014.nc | 26-Dec-2024 08:49 | 1217001 | ||
| ICYA2_TS_DEWT_112015.nc | 26-Dec-2024 08:51 | 1210391 | ||
| ICYA2_TS_DEWT_112018.nc | 26-Dec-2024 08:56 | 1248254 | ||
| ICYA2_TS_DEWT_112023.nc | 26-Dec-2024 09:07 | 450065 | ||
| ICYA2_TS_DEWT_122012.nc | 26-Dec-2024 08:45 | 1180027 | ||
| ICYA2_TS_DEWT_122013.nc | 26-Dec-2024 08:47 | 1203357 | ||
| ICYA2_TS_DEWT_122014.nc | 26-Dec-2024 08:49 | 1212743 | ||
| ICYA2_TS_DEWT_122015.nc | 26-Dec-2024 08:51 | 1209372 | ||
| ICYA2_TS_DEWT_122017.nc | 26-Dec-2024 08:53 | 1250867 | ||
| ICYA2_TS_DEWT_122018.nc | 26-Dec-2024 08:57 | 449651 | ||
| ICYA2_TS_DEWT_122023.nc | 27-Dec-2024 00:31 | 448521 | ||